Regional Weather Roundup
Issued by NWS Little Rock, AR

Home | Current Version | Previous Version | Text Only | Print | Product List | Glossary Off
Versions: 1 2 3 4 5 6 7 8 9 10 11 12 13 14 15 16 17 18 19 20 21 22 23 24 25 26 27 28 29 30 31 32 33 34 35 36 37 38 39 40 41 42 43 44 45 46 47 48 49 50

229
ASUS44 KLZK 200405
RWRLZK

WEATHER ROUNDUP FOR ARKANSAS
NATIONAL WEATHER SERVICE LITTLE ROCK AR
1000 PM CST SUN NOV 19 2017

NOTE: "FAIR" INDICATES FEW OR NO CLOUDS BELOW 12,000 FEET WITH NO
SIGNIFICANT WEATHER AND/OR OBSTRUCTIONS TO VISIBILITY.

ARZ001-003-010-029-200500-
NORTHWEST ARKANSAS

CITY           SKY/WX    TMP DP  RH WIND       PRES   REMARKS
FAYETTEVILLE   CLOUDY    32  28  85 S5        30.22S WCI  27
FORT SMITH     CLEAR     39  32  76 CALM      30.23S
HARRISON       CLEAR     38  26  62 S3        30.22R
BENTONVILLE    CLOUDY    38  27  64 S6        30.22S
ROGERS         CLOUDY    40  28  62 S7        30.21S
SILOAM SPGS    CLEAR     37  28  70 S6        30.21S
HIGHFILL       CLOUDY    38  26  62 S5        30.21S
$$

ARZ004-005-016-200500-
NORTH CENTRAL ARKANSAS

CITY           SKY/WX    TMP DP  RH WIND       PRES   REMARKS
BATESVILLE     CLEAR     35  26  69 CALM      30.26R
FLIPPIN        CLEAR     31  27  85 CALM      30.24R
MTN HOME       CLEAR     40  24  53 S3        30.21S
$$

ARZ040-041-200500-
WEST CENTRAL ARKANSAS

CITY           SKY/WX    TMP DP  RH WIND       PRES   REMARKS
MENA           CLEAR     34  32  93 CALM      30.24S
MOUNT IDA      CLEAR     36  29  75 CALM      30.22R
$$

ARZ009-017-025-026-028-200500-
NORTHEAST ARKANSAS

CITY           SKY/WX    TMP DP  RH WIND       PRES   REMARKS
CORNING        FAIR      34  30  86 CALM      30.25R
JONESBORO      CLEAR     33  27  78 CALM      30.26R
NEWPORT        CLEAR     38  27  64 S3        30.27R
WALNUT RIDGE     N/A     34  26  72 E3        30.25S
BLYTHEVILLE    CLEAR     35  29  78 S3        30.27R
$$

ARZ022-023-033-042-044-200500-
CENTRAL ARKANSAS

CITY           SKY/WX    TMP DP  RH WIND       PRES   REMARKS
LITTLE ROCK    CLEAR     37  32  82 W3        30.27R
N LITTLE ROCK    N/A     44  24  45 CALM      30.29R
JACKSONVILLE   CLEAR     34  26  73 CALM      30.25R
SEARCY         CLEAR     31  30  96 MISG        N/A
HOT SPRINGS    CLEAR     38  29  70 CALM      30.26R
RUSSELLVILLE   CLEAR     35  30  82 CALM      30.25R
CLINTON        FAIR      30  28  93 CALM      30.26R
$$

ARZ036-200500-
EAST ARKANSAS

CITY           SKY/WX    TMP DP  RH WIND       PRES   REMARKS
WEST MEMPHIS   CLEAR     32  28  85 CALM      30.26R
$$

ARZ050-053-066-070-073-200500-
SOUTHWEST ARKANSAS

CITY           SKY/WX    TMP DP  RH WIND       PRES   REMARKS
ARKADELPHIA    FAIR      33  29  85 CALM      30.27R
CAMDEN         CLEAR     34  32  93 CALM      30.26S
TEXARKANA      CLEAR     45  33  63 S3        30.24S
EL DORADO      CLEAR     37  35  92 CALM      30.26S
DE QUEEN       CLEAR     35  34  96 CALM      30.23S
$$

ARZ056-057-069-200500-
SOUTHEAST ARKANSAS

CITY           SKY/WX    TMP DP  RH WIND       PRES   REMARKS
PINE BLUFF     CLEAR     35  28  75 CALM      30.27R
STUTTGART      CLEAR     39  32  76 CALM      30.27R
MONTICELLO     CLEAR     35  30  82 CALM      30.26S

$$






USA.gov is the U.S. government's official web portal to all federal, state and local government web resources and services.